Sant Sadurní d'Osormort





Hora UTC 14:00
Temperatura 21.9 ºC
Humedad 50.7 %
Pluja 0.6 mm
Velocidad viento 6.4 km/h
Dirección viento W

Datos diarios 2021-09-19



Hora UTC (invierno +1h; verano +2h)
Temperatura (ºC) Humedad (%) Velocidad viento (km/h) Precipitación (mm)
Hora UTC Aire Humedad Vel. Dir. Vel. Max Dir. Intent. máx 5 min.
00:05 15.4 98.7 0.0 NNE 0.0 NNW 0.0
00:10 15.4 98.6 0.0 NNE 0.0 WSW 0.0
00:15 15.3 98.5 0.0 NNE 0.0 SE 0.0
00:20 15.3 98.6 0.0 NNE 0.0 WSW 0.0
00:25 15.3 98.8 0.0 NNE 0.0 ENE 0.0
00:30 15.4 98.9 0.0 NNE 0.0 S 0.0
00:35 15.4 98.8 0.0 NNE 0.0 SSW 0.0
00:40 15.4 98.9 0.0 NNE 0.0 NW 0.0
00:45 15.4 98.9 0.0 NNE 0.0 S 0.1
00:50 15.4 98.9 0.0 NNE 0.0 ENE 0.0
00:55 15.4 98.9 0.0 NNE 0.0 N 0.0
01:00 15.3 98.8 0.0 NNE 0.0 ESE 0.0
01:05 15.3 98.8 0.3 WNW 4.5 W 0.0
01:10 15.2 98.8 0.0 NNE 0.0 ENE 0.0
01:15 15.1 98.7 0.0 NNE 0.0 NE 0.0
01:20 14.9 98.5 0.0 NNE 0.0 NE 0.0
01:25 14.7 98.3 0.0 NNE 0.0 S 0.0
01:30 14.6 98.4 0.0 NNE 0.0 N 0.0
01:35 14.5 98.6 0.0 NNE 0.0 SE 0.0
01:40 14.4 98.6 0.0 NNE 0.0 NW 0.0
01:45 14.3 98.6 0.0 NNE 0.0 S 0.0
01:50 14.2 98.5 0.0 NNE 0.0 S 0.0
01:55 14.0 98.5 0.0 NNE 0.0 SSW 0.0
02:00 13.9 98.4 0.0 NNE 0.0 ENE 0.0
02:05 13.8 98.5 0.0 NNE 0.0 SSE 0.0
02:10 13.7 98.6 0.0 NNE 0.0 SSE 0.0
02:15 13.6 98.6 0.0 NNE 0.0 S 0.0
02:20 13.5 98.7 0.0 NNE 0.0 SE 0.0
02:25 13.4 98.6 0.0 NNE 0.0 SSE 0.0
02:30 13.3 98.5 0.0 NNE 0.0 SW 0.1
02:35 13.1 98.5 0.0 NNE 0.0 NNE 0.0
02:40 13.0 98.5 0.0 NNE 0.0 NNE 0.0
02:45 12.8 98.4 0.0 NNE 0.0 SSW 0.0
02:50 12.6 98.2 0.0 NNE 0.0 WSW 0.0
02:55 12.3 98.2 0.0 NNE 0.0 E 0.0
03:00 12.3 98.6 0.0 NNE 0.0 NNW 0.0
03:05 12.2 98.7 0.0 NNE 0.0 S 0.0
03:10 12.2 98.9 0.0 NNE 0.0 WNW 0.0
03:15 12.1 98.9 0.0 NNE 0.0 ESE 0.0
03:20 12.0 98.9 0.0 NNE 0.0 WNW 0.0
03:25 11.9 98.8 0.0 NNE 0.0 SW 0.0
03:30 11.7 98.7 0.0 NNE 0.0 E 0.0
03:35 11.7 98.9 0.0 NNE 0.0 E 0.0
03:40 11.7 99.1 0.0 NNE 0.0 NNE 0.0
03:45 11.7 99.2 0.0 NNE 0.0 WSW 0.0
03:50 11.7 99.3 0.0 NNE 0.0 SSW 0.0
03:55 11.7 99.2 0.0 NNE 0.0 ENE 0.0
04:00 11.6 99.2 0.0 NNE 0.0 N 0.0
04:05 11.5 98.9 0.0 NNE 0.0 SW 0.0
04:10 11.3 98.9 0.0 NNE 0.0 ENE 0.0
04:15 11.2 98.9 0.0 NNE 0.0 NNE 0.0
04:20 11.1 99.0 0.0 NNE 0.0 SW 0.0
04:25 11.1 99.0 0.0 NNE 0.0 N 0.0
04:30 11.1 99.2 0.0 NNE 0.0 NNE 0.0
04:35 11.1 99.4 0.0 NNE 0.0 ENE 0.0
04:40 11.1 99.4 0.0 NNE 0.0 ESE 0.0
04:45 11.1 99.4 0.0 NNE 0.0 SSW 0.0
04:50 11.1 99.4 0.0 NNE 0.0 ESE 0.0
04:55 11.0 99.4 0.0 NNE 0.0 SW 0.1
05:00 11.0 99.3 0.0 NNE 0.0 S 0.0
05:05 10.9 99.2 0.0 NNE 0.0 ESE 0.0
05:10 10.8 99.1 0.0 NNE 0.0 ESE 0.0
05:15 10.6 98.9 0.0 NNE 0.0 NNE 0.0
05:20 10.4 98.9 0.0 NNE 0.0 SSE 0.0
05:25 10.3 98.9 0.0 NNE 0.0 NNW 0.0
05:30 10.2 98.9 0.0 NNE 0.0 S 0.0
05:35 10.1 98.9 0.0 NNE 0.0 SSE 0.0
05:40 10.0 99.1 0.0 NNE 0.0 ENE 0.0
05:45 9.9 99.1 0.0 NNE 0.0 SSW 0.0
05:50 9.8 99.1 0.0 NNE 0.0 S 0.0
05:55 9.7 99.2 0.0 NNE 0.0 ENE 0.0
06:00 9.7 99.2 0.0 NNE 0.0 SSW 0.0
06:05 9.7 99.4 0.0 NNE 0.0 SSE 0.0
06:10 9.6 99.4 0.0 NNE 0.0 SSE 0.0
06:15 9.6 99.4 0.0 NNE 0.0 ESE 0.0
06:20 9.5 99.4 0.0 NNE 0.0 WNW 0.0
06:25 9.5 99.4 0.0 NNE 0.0 SSW 0.0
06:30 9.5 99.5 0.0 NNE 0.0 ESE 0.0
06:35 9.5 99.6 0.0 NNE 0.0 S 0.0
06:40 9.5 99.6 0.0 NNE 0.0 SW 0.0
06:45 9.5 99.6 0.0 NNE 0.0 WSW 0.0
06:50 9.5 99.6 0.0 NNE 0.0 N 0.0
06:55 9.6 99.6 0.0 NNE 0.0 SE 0.0
07:00 9.8 99.9 0.0 NNE 0.0 NNE 0.0
07:05 10.0 100.0 0.0 NNE 0.0 N 0.0
07:10 10.1 100.0 0.0 NNE 0.0 NNE 0.0
07:15 10.3 100.0 0.0 NNE 0.0 NE 0.0
07:20 10.4 100.0 0.0 NNE 0.0 NNE 0.0
07:25 10.7 100.0 0.0 NNE 0.0 E 0.0
07:30 11.0 100.0 0.0 NNE 0.0 NNE 0.0
07:35 11.4 100.0 0.0 NNE 0.0 ENE 0.0
07:40 11.6 100.0 0.0 NNE 0.0 NNE 0.0
07:45 11.7 100.0 0.0 NNE 0.0 SE 0.0
07:50 11.8 100.0 0.0 NNE 0.0 SSE 0.0
07:55 12.0 100.0 0.0 NNE 0.0 ESE 0.0
08:00 12.5 100.0 0.0 NNE 0.0 N 0.1
08:05 12.8 100.0 0.0 NNW 4.5 NNW 0.0
08:10 12.8 100.0 0.0 NNE 0.0 NNE 0.0
08:15 13.0 100.0 0.0 NNE 0.0 NNE 0.0
08:20 13.3 100.0 0.0 NNE 0.0 NE 0.0
08:25 13.2 100.0 0.7 E 4.5 E 0.0
08:30 13.3 97.6 0.0 NNE 0.0 NNE 0.0
08:35 13.7 98.0 0.0 NNE 0.0 SE 0.0
08:40 13.9 97.1 0.0 NNE 0.0 S 0.0
08:45 13.8 95.8 0.0 NNE 0.0 SW 0.0
08:50 13.9 95.6 0.0 WSW 2.2 WSW 0.0
08:55 14.0 93.0 0.1 WSW 2.2 W 0.0
09:00 14.0 92.8 0.0 NNE 0.0 SW 0.0
09:05 14.1 92.3 0.0 NNE 0.0 ENE 0.0
09:10 14.5 92.7 0.0 NNE 0.0 SE 0.0
09:15 14.9 90.6 0.0 NNE 0.0 SSE 0.0
09:20 15.1 88.4 1.3 W 9.0 W 0.0
09:25 15.3 85.4 2.0 NW 9.0 WNW 0.0
09:30 15.5 85.6 0.0 NNE 0.0 WSW 0.0
09:35 15.5 84.8 0.1 W 2.2 W 0.0
09:40 15.5 84.6 0.0 NNE 0.0 SSW 0.0
09:45 15.6 86.5 0.2 S 4.5 SSW 0.0
09:50 15.8 87.3 0.1 S 2.2 SSE 0.0
09:55 15.9 86.5 0.0 NNE 0.0 S 0.0
10:00 16.1 87.2 0.0 S 2.2 S 0.0
10:05 16.3 86.2 0.0 NNE 0.0 SE 0.0
10:10 16.5 82.9 0.2 ENE 4.5 NE 0.0
10:15 16.8 80.0 0.0 NNE 0.0 E 0.0
10:20 16.9 77.3 0.0 NNE 0.0 E 0.1
10:25 17.1 81.6 0.0 NNE 0.0 SSE 0.0
10:30 17.4 76.4 1.7 E 9.0 E 0.0
10:35 17.7 73.3 1.3 NE 9.0 ENE 0.0
10:40 17.9 76.2 0.0 NNE 0.0 SSW 0.0
10:45 18.0 76.3 0.0 NNE 0.0 S 0.0
10:50 18.4 71.7 1.0 E 6.7 ENE 0.0
10:55 18.8 72.2 0.2 ESE 6.7 ESE 0.0
11:00 19.0 72.0 1.1 ENE 9.0 ENE 0.0
11:05 19.0 69.6 0.2 E 4.5 E 0.0
11:10 19.4 70.4 1.1 WSW 9.0 W 0.0
11:15 19.6 68.0 4.7 W 13.4 WSW 0.0
11:20 20.0 65.0 2.1 WSW 9.0 WSW 0.0
11:25 20.1 63.7 0.2 SSW 4.5 S 0.0
11:30 20.3 67.2 0.1 S 2.2 SSE 0.0
11:35 20.5 62.0 3.3 WNW 13.4 WSW 0.0
11:40 20.5 62.5 1.3 W 9.0 NW 0.0
11:45 20.5 62.8 1.9 WNW 9.0 W 0.0
11:50 20.6 60.9 2.0 W 9.0 NW 0.0
11:55 20.7 62.1 5.2 WNW 20.2 NW 0.0
12:00 21.3 59.7 2.4 NW 11.2 WNW 0.0
12:05 21.3 61.4 0.4 WSW 9.0 WSW 0.0
12:10 21.2 60.2 1.9 E 9.0 E 0.0
12:15 21.2 63.5 0.5 WSW 6.7 SW 0.0
12:20 21.4 59.6 0.0 NNE 0.0 SW 0.0
12:25 21.5 57.6 5.5 W 17.9 NW 0.0
12:30 21.3 55.8 3.1 WSW 13.4 W 0.0
12:35 21.2 55.0 8.6 WSW 17.9 W 0.0
12:40 21.3 54.8 5.8 W 15.7 WNW 0.0
12:45 21.5 55.2 2.3 W 11.2 SW 0.0
12:50 21.6 52.7 1.5 S 9.0 NW 0.0
12:55 21.8 53.6 0.2 SW 4.5 SW 0.0
13:00 22.1 46.8 6.1 W 17.9 WSW 0.0
13:05 22.1 49.7 1.5 W 11.2 WSW 0.0
13:10 22.3 46.5 2.7 W 13.4 NW 0.0
13:15 22.1 46.8 4.0 SSW 11.2 SW 0.0
13:20 22.0 52.4 2.4 SSW 9.0 S 0.0
13:25 21.9 49.9 3.4 SW 11.2 WSW 0.1
13:30 22.1 45.1 5.9 W 15.7 W 0.0
13:35 22.1 45.2 3.7 WNW 13.4 NW 0.0
13:40 22.2 43.9 3.5 WNW 11.2 WSW 0.0
13:45 22.2 46.8 3.2 WSW 15.7 SW 0.0
13:50 22.1 48.8 2.2 WSW 13.4 WNW 0.0
13:55 22.1 51.3 5.5 SW 13.4 WSW 0.0
14:00 21.9 50.7 6.4 W 17.9 WSW 0.0
Máxima 22.4 100.0 8.6 WSW 20.2 NW 0.1
Mínima 9.5 43.9
Total 0.6